Location: La Chapelle
(48.3135°N, 1.3085°W)
Time: 02:53:58
(UTC+00:00)

Cosmos 1503 Rocket - Pass Details

Date: 03 March 2021
Orbit: 753 x 790 km, 74.0° (Epoch: 17 April)

Event Time Altitude Azimuth Distance (km) Brightness Sun altitude
Rises 18:27:56 0° 340° (NNW) 3,234 7.5 -6.7°
Reaches altitude 10° 18:30:24 10° 346° (NNW) 2,300 6.6 -7.1°
Maximum altitude 18:35:27 49° 61° (ENE) 969 4.2 -7.9°
Drops below altitude 10° 18:40:27 10° 137° (SE) 2,274 6.1 -8.7°
Sets 18:42:52 0° 143° (SE) 3,194 6.8 -9.2°
